Location: Austin
(30.3000°N, 97.7500°W)
Time: 04:50:24
(UTC-06:00)

YAOGAN 1 - Pass Details

Date: 19 November 2024
Orbit: 609 x 611 km, 97.8° (Epoch: 06 December)

Event Time Altitude Azimuth Distance (km) Brightness Sun altitude
Rises 19:40:07 0° 181° (S) 2,857 6.1 -27.4°
Reaches altitude 10° 19:42:22 10° 187° (S) 1,956 5.3 -27.9°
Maximum altitude 19:46:26 45° 261° (W) 830 3.5 -28.7°
Drops below altitude 10° 19:50:32 10° 334° (NNW) 1,966 5.3 -29.6°
Sets 19:52:48 0° 341° (NNW) 2,873 6.1 -30.1°
